Content
SEND FEEDBACK

Daily
Averages
Monthly
Summary
United States of America

IOWA PARK, TEXAS


Home > North America > United States > Texas
Elevation: 980 feet     Latitude: 33 55N     Longitude: 098 39W

WEATHER
 
SELECT A DAY
Number of Records: 189,930;   Date Range: 1/1/95 - 8/12/14
 
SHARE

PRINT THIS DATA

[ ← Previous Day ]
WEATHER ALMANAC - JANUARY 31, 2013
[ Next Day → ]
[ °C ]   °F
Weather ElementAverageHighLow
Temperature43.9 °F62.1 °F (3:52 pm)28.9 °F (5:52 am)
Dewpoint21.6 °F30 °F (6:52 pm)16 °F (9:52 am)
Humidity44.9 %67 % (5:52 am)20 % (3:52 pm)
Barometer30.16 in30.36 in (11:52 pm)30.06 in (2:52 pm)
Wind Speed11.9 mph21.9 mph (6:52 pm)
Wind Gust31.1 mph (11:52 pm)
Weather ElementAverage
Visibility10 mi
Wind DirectionSSE (172.6 °)

Weather ElementTotal
Precipitation---
Heating Degree Days19.5 (Base 65)
Averaged from 23 records on January 31, 2013
WEATHER CONDITIONS BREAKOUT
WIND DIRECTION BREAKOUT
WEATHER BY HOUR - JANUARY 31, 2013
[ °C ]   °F
Local TimeTemperatureDewpointHumidityBarometerVisibilityWind DirectionWind SpeedGust SpeedPrecipitationEventsConditions
1:52 AM30.9 °F18.0 °F59 %30.08 in10.0 miSW (220°)8.1 mphClear
2:52 AM33.1 °F17.1 °F52 %30.07 in10.0 miSW (230°)4.6 mphClear
3:52 AM33.1 °F18.0 °F54 %30.09 in10.0 miSW (220°)15.0 mphClear
4:52 AM32.0 °F18.0 °F56 %30.07 in10.0 miSW (220°)12.7 mphClear
5:52 AM28.9 °F19.0 °F67 %30.07 in10.0 miSSW (200°)9.2 mphClear
6:52 AM28.9 °F18.0 °F64 %30.09 in10.0 miSSW (200°)8.1 mphClear
7:52 AM34.0 °F17.1 °F50 %30.10 in10.0 miSW (220°)12.7 mphClear
8:52 AM39.9 °F17.1 °F40 %30.10 in10.0 miSW (220°)10.4 mphClear
9:52 AM46.9 °F16.0 °F29 %30.12 in10.0 miWSW (240°)11.5 mphClear
10:52 AM48.9 °F19.0 °F31 %30.14 in10.0 miWSW (250°)10.4 mphClear
11:52 AM53.1 °F19.9 °F27 %30.13 in10.0 miWSW (250°)6.9 mphClear
12:52 PM55.9 °F21.0 °F26 %30.14 in10.0 miWest (260°)10.4 mphClear
1:52 PM57.9 °F21.0 °F24 %30.09 in10.0 miSW (230°)8.1 mphClear
2:52 PM61.0 °F19.9 °F21 %30.06 in10.0 miSW (220°)5.8 mphPartly Cloudy
3:52 PM62.1 °F19.9 °F20 %30.09 in10.0 miWSW (250°)8.1 mphScattered Clouds
4:52 PM61.0 °F21.0 °F21 %30.14 in10.0 miWNW (290°)6.9 mphMostly Cloudy
5:52 PM53.1 °F28.0 °F38 %30.18 in10.0 miNNE (20°)9.2 mphMostly Cloudy
6:52 PM50.0 °F30.0 °F46 %30.22 in10.0 miNNE (20°)21.9 mph28.8 mphMostly Cloudy
7:52 PM46.0 °F30.0 °F54 %30.27 in10.0 miNNE (30°)20.7 mphMostly Cloudy
8:52 PM43.0 °F30.0 °F60 %30.31 in10.0 miNNE (30°)17.3 mphMostly Cloudy
9:52 PM39.9 °F28.9 °F65 %30.33 in10.0 miNE (40°)17.3 mphClear
10:52 PM37.0 °F26.1 °F65 %30.35 in10.0 miNE (50°)19.6 mph24.2 mphClear
11:52 PM34.0 °F23.0 °F64 %30.36 in10.0 miENE (60°)18.4 mph31.1 mphClear
Hourly data recorded from KSPS, located miles away from Iowa Park, Texas







STORIES FROM OUR PARTNERS